Location: Campillo
(40.8621°N, 4.2488°W)
Time: 12:14:47
(UTC+00:00)

Centaur D AC-29 - Pass Details

Date: 11 May 2021
Orbit: 497 x 36341 km, 26.4° (Epoch: 14 June)

Event Time Altitude Azimuth Distance (km) Brightness Sun altitude
Rises 12:42:57 0° 205° (SSW) 17,389 8.7 66.3°
Reaches altitude 10° 13:50:29 10° 192° (SSW) 28,469 10.0 59.1°
Maximum altitude 22:17:13 42° 185° (S) 4,069 4.7 -25.1°
Enters shadow 22:20:55 37° 154° (SSE) 3,284 4.1 -25.5°
